Home > Weather > Mamoutzou > Past weeks

Flag for Mayotte Weather for the Past 2 Weeks in Mamoutzou, Mayotte

Now
82 °F

Warm.


Feels Like: 87 °F
Forecast: 81 / 84 °F
Wind: 9 mph from Northwest

Location: Dzaoudzi / Pamanzi Mayotte

Current Time: Feb 10, 2016 at 6:49:53 PM

Latest Report: Feb 10, 2016 at 6:30 PM


Visibility: N/A

Pressure: 29.77 "Hg

Humidity: 70%

Dew point: 72 °F

Location of MamoutzouLocation

Historic Weather in Mamoutzou — Graph

°F

Mamoutzou Temperature Yesterday

Maximum temperature yesterday: 90 °F (at 1:30 PM)
Minimum temperature yesterday: 79 °F (at 5:00 AM)
Average temperature yesterday: 84 °F

High & Low Weather Summary for the Past Weeks

 TemperatureHumidityPressure
High90 °F (Jan 27, 1:04 PM)94% (Jan 28, 2:00 AM)29.89 "Hg (Jan 28, 2:00 AM)
Low75 °F (Feb 3, 7:00 PM)55% (Feb 10, 12:00 PM)29.71 "Hg (Feb 1, 3:30 AM)
Average81 °F80%29.81 "Hg
* Reported Jan 26 6:00 PM — Feb 10 6:00 PM, Mamoutzou, Weather by CustomWeather, © 2016

Note: Actual official high and low records may vary slightly from our data, if they occured in-between our weather recording intervals... More about our weather records

Advertising

Mamoutzou Weather History for the Previous 24 Hours

 ConditionsComfort  
Time TempWeatherWind HumidityBarometerVisibility
6:00 PM
Wed, Feb 10
84 °FScattered clouds.7 mph70%29.74 "HgN/A
5:30 PM86 °FBroken clouds.10 mph66%29.74 "HgN/A
5:00 PM86 °FBroken clouds.9 mph62%29.74 "HgN/A
4:30 PM86 °FBroken clouds.12 mph66%29.74 "HgN/A
4:04 PM88 °FBroken clouds.12 mph59%29.74 "HgN/A
3:30 PM90 °FScattered clouds.12 mph55%29.74 "HgN/A
3:06 PM88 °FPassing clouds.14 mph59%29.74 "HgN/A
2:38 PM90 °FPassing clouds.12 mph59%29.74 "HgN/A
2:00 PM88 °FScattered clouds.15 mph59%29.77 "HgN/A
1:00 PM90 °FScattered clouds.13 mph55%29.77 "HgN/A
12:30 PM90 °FScattered clouds.17 mph55%29.80 "HgN/A
12:00 PM90 °FScattered clouds.16 mph55%29.80 "HgN/A
11:30 AM88 °FScattered clouds.15 mph62%29.80 "HgN/A
11:00 AM90 °FPassing clouds.16 mph59%29.80 "HgN/A
10:30 AM88 °FPassing clouds.13 mph62%29.80 "HgN/A
10:00 AM88 °FPassing clouds.14 mph62%29.83 "HgN/A
9:30 AM88 °FPassing clouds.14 mph59%29.83 "HgN/A
9:00 AM86 °FPassing clouds.14 mph66%29.83 "HgN/A
8:30 AM86 °FScattered clouds.10 mph66%29.83 "HgN/A
8:00 AM84 °FScattered clouds.13 mph70%29.83 "HgN/A
7:30 AM84 °FScattered clouds.10 mph70%29.83 "HgN/A
7:00 AM82 °FScattered clouds.10 mph74%29.83 "HgN/A
6:30 AM81 °FScattered clouds.10 mph79%29.83 "HgN/A
6:00 AM81 °FScattered clouds.10 mph79%29.80 "HgN/A
5:30 AM81 °FPassing clouds.12 mph79%29.80 "HgN/A
5:00 AM81 °FPassing clouds.10 mph79%29.80 "HgN/A
4:30 AM82 °FWarm.12 mph74%29.80 "HgN/A
3:30 AM81 °FWarm.12 mph79%29.80 "HgN/A
3:00 AM81 °FWarm.10 mph79%29.80 "HgN/A
2:30 AM82 °FWarm.9 mph74%29.77 "HgN/A
2:00 AM82 °FWarm.8 mph74%29.80 "HgN/A
1:30 AM82 °FWarm.8 mph74%29.80 "HgN/A
12:30 AM81 °FWarm.9 mph79%29.80 "HgN/A
12:00 AM82 °FWarm.9 mph74%29.83 "HgN/A
11:30 PM
Tue, Feb 9
82 °FWarm.8 mph74%29.83 "HgN/A
11:00 PM82 °FWarm.8 mph74%29.83 "HgN/A
10:30 PM82 °FWarm.9 mph74%29.83 "HgN/A
10:00 PM82 °FWarm.9 mph74%29.83 "HgN/A
9:30 PM82 °FWarm.9 mph74%29.83 "HgN/A
9:00 PM82 °FWarm.9 mph74%29.83 "HgN/A
8:30 PM82 °FWarm.9 mph74%29.83 "HgN/A
8:00 PM82 °FWarm.8 mph74%29.80 "HgN/A
7:00 PM82 °FWarm.9 mph74%29.80 "HgN/A
6:30 PM82 °FPassing clouds.10 mph74%29.80 "HgN/A
6:00 PM82 °FBroken clouds.10 mph79%29.77 "HgN/A
Weather by CustomWeather, © 2016

See weather overviewHow to use our weather pages